ATLAS 5 CENTAUR DEB, 46869

Orbit data source: Space-Track

ATLAS 5 CENTAUR DEB, 46869 is space debris in HEO originally from a launch on Wed, 17 Oct 2018 UTC launched from the Air Force Eastern Test Range (AFETR). Debris objects in space refer to the collection of defunct objects orbiting the Earth. Examples of debris include non-operational satellites, rocket bodies, and fragments generated from explosions, collisions, or faulty payload assembly.

Loading next visibility...
Identifier
46869, 2018-079EA
Orbit
HEO
Country
Flag of USUS
Related business
Flag of USUnited Launch Alliance/Lockheed Martin (US)
Manufacturer
ULA Decatur
Mission
Spacecraft
Bus & Motor
Unknown
Mass
Unknown
Launch date (UTC)
2018-10-17 (7 years ago)
Launch vehicle
Unknown
Launch site
Air Force Eastern Test Range (AFETR)
Object type
Payload
Rocket body
Debris
Shape & HBR
Unknown shape, 1.1 m
Radar Cross Section
RCS unknown

Expand to show TLE details & history
Last TLE update: 4 days ago

TLE from 4 days ago
0 ATLAS 5 CENTAUR DEB
1 46869U 18079EA  25346.49646482 -.00000074  00000-0  00000-0 0  9993
2 46869  13.0953  49.7244 4654124 288.1741  27.6728  1.83279103 34219
Epoch: 2025-12-12T11:54Z
TLE epoch observation values (Epoch: 2025-12-12T11:54:54.560Z)
Latitude
-0°
Longitude
149.50613°
Altitude
12,941.156 km
Speed
5.209 km/s
True Right ascension
03h 18m 40s
True Declination
0° 00' 00"
Sunlit
Object was in daylight at epoch
Visualization orbit readout
Latitude
Unknown
Longitude
Unknown
Altitude
Unknown
Speed
Unknown
Apparent Right ascension
Unknown
Apparent Declination
Unknown
Sunlit
N/A
Visualization observer readout
Local Sidereal Time
17:16:43
Azimuth
Unknown
Elevation
Unknown
Doppler factor
Unknown
Orbital elements
Apogee altitude
34,956.933 km
Perigee altitude
8,701.042 km
Semi-major axis
28,207.124 km
Eccentricity
0.46541
Inclination
13.0953°
RAAN
49.7244°
Arg. of periapsis
288.1741°
True anomaly
71.83233°
Mean anomaly
27.6728°
Eccentric anomaly
47.25638°
Mean motion
0.45815 °/min
Orbital period
785.77 mins
BSTAR
0
Loading maneuver chart data...
Computing Atmospheric mass density...

Documentation

Showing up to 5 results
|